Probability
0 0 0 0 0 0 0 0 0 0 0 0 0 0 0 0 0 0 0 0 0 0 0 0 0 0 1 3 11 25 35 37 31 21 13 8 5 2 1 0 0 0 0 0
0 0 0 0 0 0 0 0 0 0 0 0 0 0 0 0 0 0 0 0 0 0 0 0 0 0 0 4 17 35 49 52 45 33 21 11 5 2 0 0 0 0 0 0
0 0 0 0 0 0 0 0 0 0 0 0 0 0 0 0 0 0 0 0 0 0 0 1 2 2 3 9 24 47 64 68 59 45 29 15 7 3 1 0 0 0 0 0
0 0 0 0 0 0 0 0 0 0 0 0 0 0 0 0 0 0 0 0 0 0 0 1 4 7 12 19 33 53 68 68 59 46 31 17 9 3 1 0 0 0 0 0
0 0 0 0 0 0 0 0 0 0 0 0 0 0 0 0 0 0 0 0 0 0 0 1 5 13 21 30 40 54 63 60 50 39 27 15 7 2 0 0 0 0 0 0
0 0 0 0 0 0 0 0 0 0 0 0 0 0 0 0 0 0 0 0 0 0 0 1 4 13 23 31 37 46 50 46 37 28 20 11 4 0 0 0 0 0 0 0
0 0 0 0 0 0 0 0 0 0 0 0 0 0 0 0 0 0 0 0 0 0 0 2 4 8 15 22 26 30 32 29 23 17 12 7 2 0 0 0 0 0 0 0
0 0 0 0 0 0 0 0 0 0 0 0 0 0 0 0 0 0 0 0 0 0 0 2 4 4 7 12 14 16 16 13 10 8 6 4 1 0 0 0 0 0 0 0
0 0 0 0 0 0 0 0 0 0 0 0 0 0 0 0 0 0 0 0 0 0 0 1 2 2 3 6 7 7 6 5 4 4 3 2 0 0 0 0 0 0 0 0
0 0 0 0 0 0 0 0 0 0 0 0 0 0 0 0 0 0 0 0 0 0 0 0 0 0 1 2 3 2 2 1 2 1 1 0 0 0 0 0 0 0 0 0
0 0 0 0 0 0 0 0 0 0 0 0 0 0 0 0 0 0 0 0 0 0 0 0 0 0 0 1 1 0 0 0 0 0 0 0 0 0 0 0 0 0 0 0
0 0 0 0 0 0 0 0 0 0 0 0 0 0 0 0 0 0 0 0 0 0 0 0 0 0 0 0 0 0 0 0 0 0 0 0 0 0 0 0 0 0 0 0
0 0 0 0 0 0 0 0 0 0 0 0 0 0 0 0 0 0 0 0 0 0 0 0 0 0 0 0 0 0 0 0 0 0 0 0 0 0 0 0 0 0 0 0
0 0 0 0 0 0 0 0 0 0 0 0 0 0 0 0 0 0 0 0 0 0 0 0 0 0 0 0 0 0 0 0 0 0 0 0 0 0 0 0 0 0 0 0
0 0 0 0 0 0 0 0 0 0 0 0 0 0 0 0 0 0 0 0 0 0 0 0 0 0 0 0 0 0 0 0 0 0 0 0 0 0 0 0 0 0 0 0
0 0 0 0 0 0 0 0 0 0 0 0 0 0 0 0 0 0 0 0 0 0 0 0 0 0 0 0 0 0 0 0 0 0 0 0 0 0 0 0 0 0 0 0
0 0 0 0 0 0 0 0 0 0 0 0 0 0 0 0 0 0 0 0 0 0 0 0 0 0 0 0 0 0 0 0 0 0 0 0 0 0 0 0 0 0 0 0
0 0 0 0 0 0 0 0 0 0 0 0 0 0 0 0 0 0 0 0 0 0 0 0 0 0 0 0 0 0 0 0 0 0 0 0 0 0 0 0 0 0 0 0
0 0 0 0 0 0 0 0 0 0 0 0 0 0 0 0 0 0 0 0 0 0 0 0 0 0 0 0 0 0 0 0 0 0 0 0 0 0 0 0 0 0 0 0
0 0 0 0 0 0 0 0 0 0 0 0 0 0 0 0 0 0 0 0 0 0 0 0 0 0 0 0 0 0 0 0 0 0 0 0 0 0 0 0 0 0 0 0
0 0 0 0 0 0 0 0 0 0 0 0 0 0 0 0 0 0 0 0 0 0 0 0 0 0 0 0 0 0 0 0 0 0 0 0 0 0 0 0 0 0 0 0
0 0 0 0 0 0 0 0 0 0 0 0 0 0 0 0 0 0 0 0 0 0 0 0 0 0 0 0 0 0 0 0 0 0 0 0 0 0 0 0 0 0 0 0
0 0 0 0 0 0 0 0 0 0 0 0 0 0 0 0 0 0 0 0 0 0 0 0 0 0 0 0 0 0 0 0 0 0 0 0 0 0 0 0 0 0 0 0
0 0 0 0 0 0 0 0 0 0 0 0 0 0 0 0 0 0 0 0 0 0 0 0 0 0 0 0 0 0 0 0 0 0 0 0 0 0 0 0 0 0 0 0
0 0 0 0 0 0 0 0 0 0 0 0 0 0 0 0 0 0 0 0 0 0 0 0 0 0 0 0 0 0 0 0 0 0 0 0 0 0 0 0 0 0 0 0
0 0 0 0 0 0 0 0 0 0 0 0 0 0 0 0 0 0 0 0 0 0 0 0 0 0 0 0 0 0 0 0 0 0 0 0 0 0 0 0 0 0 0 0
Wind_Speed
4 4 1 4 4 4 3 3 5 6 2 1 4 5 6 6 8 10 9 9 9 10 10 9 10 11 12 13 14 14 13 11 9 7 7 5 5 4 4 5 6 7 7 8
5 2 4 3 1 2 2 3 5 5 2 1 3 4 2 4 6 7 9 11 12 13 12 9 8 9 12 15 15 14 14 12 11 8 6 4 3 3 3 3 5 6 7 7
1 4 4 2 2 2 3 4 5 5 2 2 2 4 3 4 4 9 10 10 12 13 13 11 7 7 8 11 13 12 12 11 10 7 4 3 3 2 2 3 4 5 6 6
2 4 4 4 4 2 5 5 4 3 1 3 1 4 4 6 7 12 15 15 15 15 13 9 6 3 3 5 6 7 8 7 7 7 6 5 5 4 5 3 3 4 5 6
4 5 6 6 5 4 4 4 2 1 2 1 1 2 5 6 9 13 15 16 16 15 13 9 6 3 3 3 5 6 8 7 6 5 5 4 3 3 1 2 3 3 3 4
4 4 4 3 4 3 3 4 4 4 3 1 3 3 3 4 8 13 14 15 16 15 13 10 8 6 6 7 7 7 8 6 5 4 4 6 5 5 4 3 3 3 2 3
9 7 7 5 7 7 6 5 4 4 2 4 1 2 0 3 7 9 13 14 14 13 12 10 9 7 7 9 8 8 7 6 4 3 3 4 5 5 5 4 4 3 3 3
6 7 7 7 4 5 4 1 2 3 3 3 1 1 1 3 7 8 9 10 12 12 11 10 9 7 7 8 8 7 6 4 3 3 2 2 3 3 3 3 3 3 3 3
3 5 5 5 4 3 5 3 1 1 2 2 2 2 2 9 13 14 14 14 13 12 11 9 8 7 8 8 8 6 5 4 2 2 2 2 2 2 2 3 2 2 2 2
1 4 6 6 6 6 3 1 3 2 1 1 2 3 6 14 17 17 16 15 13 11 10 8 6 6 6 7 6 5 5 4 2 2 1 2 2 2 3 3 3 2 2 2
2 1 7 6 6 6 7 5 3 1 1 1 0 2 6 10 13 14 14 13 12 10 9 8 6 5 6 6 6 6 5 3 1 1 2 3 3 2 3 2 2 1 2 2
2 4 3 4 3 3 2 3 2 1 2 1 1 2 7 9 11 12 13 14 13 11 8 7 6 6 7 6 6 6 5 3 1 1 3 4 4 4 3 3 2 1 1 1
3 5 5 8 7 8 6 6 3 1 1 2 2 2 7 11 13 14 14 15 12 12 10 8 7 7 6 5 5 5 4 3 2 1 3 3 3 4 3 2 2 1 1 1
5 5 3 2 3 5 7 10 8 4 2 3 4 5 11 17 17 17 16 15 13 11 10 10 8 7 6 5 6 5 5 4 2 1 2 2 2 2 1 1 1 1 1 1
5 4 2 2 2 5 10 12 12 10 7 5 5 6 11 15 13 13 14 14 14 14 13 11 9 7 7 6 6 6 7 6 5 4 3 2 2 2 1 0 1 1 1 1
4 4 2 1 2 4 9 13 11 10 9 8 7 5 10 12 10 11 14 15 15 14 13 11 9 8 8 7 7 7 8 7 6 5 4 3 3 2 1 1 1 1 1 1
3 3 2 2 4 2 6 8 8 6 6 6 6 7 12 12 13 11 12 14 13 13 11 10 9 7 7 7 6 7 7 7 7 7 7 6 5 4 3 3 2 2 2 2
3 4 3 1 3 3 3 2 2 2 3 5 4 7 10 10 10 5 6 10 12 12 10 9 7 7 6 6 6 6 7 7 7 7 7 7 6 5 5 4 4 4 2 2
3 5 4 3 2 1 2 1 1 1 1 3 5 8 10 11 5 4 8 10 9 8 7 6 5 4 5 6 6 6 7 6 7 7 7 6 6 6 6 6 5 4 3 2
5 5 5 3 2 3 4 3 1 2 2 2 4 6 8 8 5 6 12 13 11 9 6 5 5 4 5 5 5 5 5 6 6 6 5 6 6 6 6 6 5 4 3 3
3 4 3 2 2 5 5 2 2 2 3 4 3 5 4 3 4 9 12 10 8 7 6 5 4 4 4 4 4 4 5 5 4 4 5 6 6 5 6 5 5 5 5 4
4 3 2 3 2 6 3 2 3 5 3 3 3 4 4 6 7 8 8 8 9 8 6 5 4 4 4 3 3 4 4 4 3 3 5 6 6 6 6 6 6 6 6 5
5 7 6 7 7 5 3 4 3 3 2 3 3 4 5 5 6 7 7 8 8 7 6 5 4 5 5 3 1 3 4 2 2 3 4 4 5 5 6 6 6 6 6 5
3 3 4 3 5 4 4 3 2 3 4 4 5 5 4 5 6 7 7 7 8 7 6 5 4 5 5 4 3 3 2 0 1 1 2 2 3 4 5 5 5 5 5 5
6 6 4 4 4 2 4 5 4 3 4 4 4 3 4 4 5 5 6 7 7 6 6 5 4 5 6 5 4 3 2 2 1 0 1 1 2 2 3 4 4 4 4 5
6 9 8 8 7 7 6 6 4 3 3 3 3 4 4 3 5 5 6 5 6 7 6 6 6 6 6 5 4 3 2 3 3 1 0 0 0 1 1 2 2 4 5 7
Wind_Direction
27 53 301 252 217 221 225 235 258 262 272 286 269 284 317 353 15 5 352 338 317 293 281 270 246 230 217 206 199 196 193 187 175 174 177 181 198 194 195 196 196 196 197 194
30 325 272 270 253 226 233 257 269 283 314 270 288 291 340 27 28 6 353 344 334 324 314 295 265 236 217 207 201 197 193 185 183 186 177 167 162 181 189 192 199 197 195 192
235 282 328 5 353 317 272 236 252 263 335 24 338 318 357 352 1 1 358 346 339 332 320 308 287 251 226 210 202 195 188 180 178 163 138 113 103 98 142 189 201 199 191 189
353 340 12 25 3 342 281 281 263 261 320 293 27 290 313 336 344 358 354 350 343 337 329 322 314 299 233 209 187 172 159 152 147 143 157 169 178 192 201 189 192 191 191 193
347 7 33 22 335 335 279 321 325 265 183 278 309 212 301 349 353 347 343 343 342 340 337 337 343 356 37 91 111 117 117 119 128 143 165 184 194 203 168 154 176 185 193 202
352 358 39 351 324 344 341 11 32 42 81 244 243 176 318 1 339 330 335 340 341 341 344 349 2 27 49 63 80 92 104 108 120 149 178 186 190 190 176 178 182 183 185 196
346 357 2 3 358 357 25 34 2 347 11 247 268 131 53 350 342 332 331 335 339 343 352 0 9 23 47 59 65 76 86 90 102 141 185 194 191 190 189 183 185 185 189 198
6 331 355 7 7 328 338 73 183 248 246 287 350 151 147 1 343 335 333 333 342 349 354 4 12 27 43 53 57 64 73 80 105 142 164 195 183 182 183 179 178 189 198 205
0 300 332 353 352 15 353 356 263 203 277 286 317 25 2 352 352 350 348 347 349 348 350 0 13 33 45 51 50 51 64 60 59 97 138 161 165 166 171 165 164 176 186 188
58 302 316 327 8 15 32 322 25 46 248 258 330 31 357 345 343 341 342 343 341 343 346 354 11 28 42 51 48 41 51 52 41 65 107 122 131 149 146 135 142 151 166 168
61 38 324 3 23 343 350 5 9 344 247 170 10 39 14 342 336 336 338 338 337 343 348 350 360 26 47 47 50 38 27 33 31 118 117 102 100 97 93 95 104 130 144 158
62 93 332 308 308 346 2 359 359 356 328 349 99 35 1 347 339 343 343 344 344 348 353 355 6 22 35 34 29 23 5 355 304 150 118 109 102 93 84 78 69 77 120 159
74 65 11 353 355 2 4 352 350 355 54 13 44 14 353 354 356 357 354 352 351 357 6 12 19 25 24 13 9 5 344 319 294 150 121 112 101 94 87 82 82 84 113 156
92 74 82 51 327 338 355 11 15 34 37 30 33 5 352 356 354 353 355 356 359 6 16 24 25 24 20 12 6 356 349 337 333 65 89 86 91 98 106 103 94 160 175 185
76 84 71 91 54 40 34 24 29 40 30 40 26 11 353 344 340 345 352 358 7 14 20 20 21 19 17 17 13 9 12 7 16 41 55 46 53 71 77 103 168 197 201 201
60 103 94 15 355 23 35 22 24 30 22 22 19 4 339 331 341 356 1 2 6 8 10 12 17 18 16 15 11 11 17 14 24 37 36 27 32 31 359 310 284 292 292 280
65 100 94 322 316 16 20 5 16 37 33 16 5 328 329 341 345 349 355 359 358 356 356 0 5 6 7 8 9 11 14 19 31 32 27 21 18 17 2 0 7 352 331 329
112 98 106 53 39 43 275 271 353 27 52 19 345 330 335 329 313 307 357 356 347 343 343 343 346 352 355 1 7 11 20 25 28 27 23 19 18 14 5 9 7 2 360 349
99 124 104 94 85 289 289 312 0 322 316 351 336 334 338 334 331 344 353 351 334 325 322 320 326 334 346 359 360 14 19 18 22 18 14 11 13 14 13 10 359 356 353 347
52 76 101 106 133 227 244 267 278 162 280 301 327 326 334 356 20 326 329 332 328 329 326 325 329 340 348 347 356 17 12 14 8 359 2 7 13 17 13 4 356 352 352 350
23 36 77 125 202 258 248 275 101 152 257 290 296 298 314 324 253 277 305 314 316 319 319 326 331 328 324 333 354 5 2 355 341 351 11 16 13 16 17 9 8 5 7 12
175 154 174 148 202 258 230 132 166 213 235 260 273 280 288 285 284 294 305 316 326 330 328 328 324 314 313 328 349 345 337 327 352 19 27 22 17 17 19 18 17 17 18 24
191 189 186 188 212 237 212 202 214 193 230 263 265 283 295 296 301 310 313 321 325 327 325 324 318 310 311 311 300 305 309 328 27 39 34 27 25 25 23 25 21 19 20 22
247 162 160 234 255 237 223 227 241 218 231 260 273 285 292 294 301 308 313 321 327 328 326 324 323 315 305 300 284 264 280 243 99 60 37 32 34 32 30 29 25 25 20 18
218 170 179 236 255 233 241 226 230 246 258 278 296 288 291 300 307 307 312 315 319 321 319 320 310 296 291 293 285 273 237 168 153 118 32 36 40 42 37 34 29 21 20 17
197 173 173 211 206 182 216 217 211 228 263 290 309 317 320 311 304 309 309 307 311 315 317 320 316 302 294 290 284 275 218 177 170 192 265 355 26 42 43 28 19 24 26 27